Content
SEND FEEDBACK

Daily
Averages
Monthly
Summary
United States of America

GLENVIEW, ILLINOIS


Home > North America > United States > Illinois
Elevation: 653 feet     Latitude: 42 05N     Longitude: 087 50W

WEATHER
 
SELECT A DAY
Number of Records: 198,885;   Date Range: 7/8/95 - 11/25/14
 
SHARE

PRINT THIS DATA

[ ← Previous Day ]
WEATHER ALMANAC - JULY 18, 2013
[ Next Day → ]
[ °C ]   °F
Weather ElementAverageHighLow
Temperature87.7 °F96.1 °F (2:52 pm)80.1 °F (4:52 am)
Dewpoint71.4 °F73 °F (1:52 am)68 °F (2:52 pm)
Humidity59.4 %76 % (4:52 am)40 % (2:52 pm)
Barometer30.07 in30.17 in (1:52 am)29.95 in (11:52 pm)
Wind Speed6.3 mph13.8 mph (4:52 pm)
Wind Gust18.4 mph (4:52 pm)
Weather ElementAverage
Visibility10 mi
Wind DirectionSSW (190 °)

Weather ElementTotal
Precipitation---
Cooling Degree Days23.1 (Base 65)
Growing Degree Days38.1 (Base 50)
Averaged from 23 records on July 18, 2013
WEATHER CONDITIONS BREAKOUT
WIND DIRECTION BREAKOUT
WEATHER BY HOUR - JULY 18, 2013
[ °C ]   °F
Local TimeTemperatureDewpointHumidityBarometerVisibilityWind DirectionWind SpeedGust SpeedPrecipitationEventsConditions
1:52 AM82.0 °F73.0 °F74 %30.17 in10.0 miCalmClear
2:52 AM82.0 °F73.0 °F74 %30.16 in10.0 miCalmClear
3:52 AM81.0 °F72.0 °F74 %30.16 in10.0 miWest (260°)3.5 mphClear
4:52 AM80.1 °F72.0 °F76 %30.15 in10.0 miWest (270°)3.5 mphClear
5:52 AM80.1 °F72.0 °F76 %30.15 in10.0 miWest (280°)3.5 mphClear
6:52 AM82.0 °F72.0 °F71 %30.14 in10.0 miCalmClear
7:52 AM84.9 °F72.0 °F65 %30.14 in10.0 miWSW (240°)3.5 mphClear
8:52 AM88.0 °F72.0 °F59 %30.13 in10.0 miSW (220°)5.8 mphClear
9:52 AM90.0 °F72.0 °F55 %30.12 in10.0 miWSW (250°)9.2 mphClear
10:52 AM91.9 °F71.1 °F50 %30.12 in10.0 miSW (230°)9.2 mphPartly Cloudy
11:52 AM91.0 °F70.0 °F50 %30.11 in10.0 miWest (260°)8.1 mphClear
12:52 PM93.0 °F69.1 °F45 %30.09 in10.0 miCalmScattered Clouds
1:52 PM93.9 °F69.1 °F44 %30.06 in10.0 miWSW (240°)8.1 mphPartly Cloudy
2:52 PM96.1 °F68.0 °F40 %30.04 in10.0 miSSW (200°)11.5 mph16.1 mphPartly Cloudy
3:52 PM93.0 °F69.1 °F45 %30.01 in10.0 miWSW (240°)12.7 mphMostly Cloudy
4:52 PM91.9 °F70.0 °F48 %30.00 in10.0 miSW (230°)13.8 mph18.4 mphScattered Clouds
5:52 PM91.0 °F70.0 °F50 %29.99 in10.0 miSW (230°)6.9 mphClear
6:52 PM91.0 °F72.0 °F53 %29.97 in10.0 miSSW (200°)10.4 mphClear
7:52 PM89.1 °F73.0 °F59 %29.96 in10.0 miSSW (200°)9.2 mphClear
8:52 PM87.1 °F72.0 °F61 %29.96 in10.0 miSSW (200°)5.8 mphClear
9:52 PM86.0 °F73.0 °F65 %29.96 in10.0 miSSW (200°)6.9 mphClear
10:52 PM86.0 °F73.0 °F65 %29.96 in10.0 miSSW (210°)6.9 mphClear
11:52 PM84.9 °F73.0 °F67 %29.95 in10.0 miSSW (210°)6.9 mphClear
Hourly data recorded from KPWK, located miles away from Glenview, Illinois







STORIES FROM OUR PARTNERS